Weather History for Salt Lake City, UT

Change the Weather History Date:

Tuesday, December 3, 2013

  Actual Average Record
Temperature  
Mean Temperature 35 °F 33 °F  
Max Temperature 47 °F 41 °F 63 °F (1998)
Min Temperature 22 °F 25 °F 5 °F (1931)
Degree Days  
Heating Degree Days 30 32  
Month to date heating degree days 63 96  
Since 1 July heating degree days 1110 1314  
Cooling Degree Days 0 0  
Month to date cooling degree days 0 0  
Year to date cooling degree days 1768 1160  
Moisture  
Dew Point 22 °F    
Average Humidity 75    
Maximum Humidity 89    
Minimum Humidity 60    
Precipitation  
Precipitation 0.40 in 0.04 in 0.63 in (1938)
Month to date precipitation 0.40 0.14  
Year to date precipitation 10.37 14.83  
Snow  
Snow 0.00 in 0.40 in 3.50 in (1999)
Month to date snowfall 0.0 1.2  
Since 1 July snowfall 3.5 10.2  
Snow Depth 2.00 in    
Sea Level Pressure  
Sea Level Pressure 29.72 in    
Wind  
Wind Speed 11 mph (NNW)    
Max Wind Speed 23 mph    
Max Gust Speed 29 mph    
Visibility 3 miles    
Events Rain , Snow    
T = Trace of Precipitation, MM = Missing Value Source: NWS Daily Summary

Daily Weather History Graph

Daily Weather History Graph

Search for Another Location

Airport:

Trip Planner

Search our weather history database for the weather conditions in past years. The results will help you decide how hot, cold, wet, or windy it might be!

Date:

Astronomy

Dec. 03, 2013 Rise Set
Actual Time 7:35 AM MST 5:00 PM MST
Civil Twilight 7:04 AM MST 5:31 PM MST
Nautical Twilight 6:30 AM MST 6:05 PM MST
Astronomical Twilight 5:57 AM MST 6:38 PM MST
Moon 8:07 AM MST (12/3) 6:08 PM MST (12/3)
Length of Visible Light 10h 26m
Length of Day
9h 25m
New Moon, 1% of the Moon is Illuminated
Dec 3
New Moon
Dec 9
First Quarter
Dec 17
Full
Dec 25
Last Quarter
Jan 1
New

Hourly Weather History & Observations

Time (MST) Temp. Windchill Dew Point Humidity Pressure Visibility Wind Dir Wind Speed Gust Speed Precip Events Conditions
12:53 AM 41.0 °F 32.5 °F 30.9 °F 67% 29.61 in 10.0 mi NNW 17.3 mph - 0.00 in Rain Light Rain
1:09 AM 39.2 °F 29.0 °F 28.4 °F 65% 29.68 in 8.0 mi NNW 21.9 mph 28.8 mph 0.00 in Rain Light Rain
1:53 AM 37.9 °F 30.0 °F 27.0 °F 65% 29.62 in 6.0 mi NW 12.7 mph - 0.01 in Snow Light Snow
2:08 AM 35.6 °F 27.1 °F 28.4 °F 75% 29.68 in 1.5 mi NW 12.7 mph - 0.00 in Snow Light Snow
2:22 AM 33.8 °F 24.3 °F 28.4 °F 81% 29.70 in 1.0 mi NW 13.8 mph - 0.01 in Snow Light Snow
2:53 AM 34.0 °F 26.0 °F 30.0 °F 85% 29.65 in 1.0 mi North 10.4 mph - 0.04 in Snow Light Snow
3:07 AM 33.8 °F 25.3 °F 28.4 °F 81% 29.68 in 2.0 mi North 11.5 mph - 0.00 in Snow Light Snow
3:19 AM 33.8 °F 26.4 °F 28.4 °F 81% 29.69 in 5.0 mi NNW 9.2 mph - 0.00 in Snow Light Snow
3:34 AM 33.8 °F 27.0 °F 28.4 °F 81% 29.69 in 1.0 mi NNW 8.1 mph - 0.01 in Snow Light Snow
3:53 AM 32.0 °F 22.5 °F 28.0 °F 85% 29.65 in 0.8 mi NNW 12.7 mph - 0.02 in Snow Light Snow
4:16 AM 30.2 °F 20.2 °F 26.6 °F 86% 29.68 in 0.8 mi NNW 12.7 mph - 0.03 in Snow Light Snow
4:53 AM 30.9 °F 20.7 °F 27.0 °F 85% 29.67 in 0.8 mi NW 13.8 mph - 0.07 in Snow Light Snow
5:53 AM 28.0 °F 14.3 °F 24.1 °F 85% 29.69 in 0.8 mi North 21.9 mph - 0.03 in Snow Light Snow
6:13 AM 28.4 °F 16.2 °F 24.8 °F 86% 29.73 in 0.8 mi North 17.3 mph - 0.00 in Snow Light Snow
6:40 AM 28.4 °F 16.6 °F 23.0 °F 80% 29.73 in 1.2 mi North 16.1 mph - 0.01 in Snow Light Snow
6:53 AM 28.0 °F 16.5 °F 23.0 °F 81% 29.72 in 1.5 mi North 15.0 mph - 0.01 in Snow Light Snow
7:00 AM 28.4 °F 18.5 °F 23.0 °F 80% 29.74 in 1.2 mi North 11.5 mph - 0.01 in Snow Light Snow
7:10 AM 28.4 °F 17.5 °F 23.0 °F 80% 29.74 in 1.5 mi North 13.8 mph - 0.01 in Snow Light Snow
7:23 AM 26.6 °F 14.7 °F 21.2 °F 80% 29.74 in 1.5 mi North 15.0 mph - 0.01 in Snow Light Snow
7:29 AM 26.6 °F 14.7 °F 21.2 °F 80% 29.73 in 2.5 mi North 15.0 mph - 0.01 in Snow Light Snow
7:50 AM 26.6 °F 16.2 °F 21.2 °F 80% 29.74 in 1.2 mi North 11.5 mph - 0.02 in Snow Light Snow
7:53 AM 27.0 °F 16.1 °F 21.9 °F 81% 29.72 in 1.2 mi North 12.7 mph - 0.02 in Snow Light Snow
8:18 AM 26.6 °F 16.8 °F 23.0 °F 86% 29.74 in 1.0 mi North 10.4 mph - 0.01 in Snow Light Snow
8:31 AM 26.6 °F 15.2 °F 21.2 °F 80% 29.73 in 1.0 mi North 13.8 mph - 0.01 in Snow Light Snow
8:48 AM 26.6 °F 16.8 °F 21.2 °F 80% 29.72 in 2.0 mi North 10.4 mph - 0.02 in Snow Light Snow
8:53 AM 27.0 °F 17.3 °F 21.9 °F 81% 29.71 in 2.0 mi North 10.4 mph - 0.02 in Snow Light Snow
9:06 AM 26.6 °F 16.2 °F 21.2 °F 80% 29.71 in 3.0 mi NNW 11.5 mph - 0.00 in Snow Light Snow
9:53 AM 28.0 °F 22.8 °F 19.9 °F 72% 29.71 in 10.0 mi NW 4.6 mph - 0.00 in   Overcast
10:11 AM 28.4 °F 22.2 °F 19.4 °F 69% 29.72 in 4.0 mi NW 5.8 mph - 0.00 in Snow Light Snow
10:49 AM 28.4 °F 18.5 °F 19.4 °F 69% 29.74 in 1.8 mi NW 11.5 mph 16.1 mph 0.00 in Snow Light Snow
10:53 AM 28.0 °F 18.1 °F 19.0 °F 69% 29.73 in 2.0 mi NNW 11.5 mph - 0.00 in Snow Light Snow
11:48 AM 26.6 °F 19.1 °F 21.2 °F 80% 29.75 in 1.2 mi North 6.9 mph - 0.01 in Snow Light Snow
11:53 AM 27.0 °F 18.7 °F 21.0 °F 78% 29.75 in 1.2 mi North 8.1 mph - 0.01 in Snow Light Snow
12:04 PM 26.6 °F 16.8 °F 21.2 °F 80% 29.74 in 1.0 mi NNW 10.4 mph - 0.00 in Snow Light Snow
12:12 PM 26.6 °F 16.2 °F 21.2 °F 80% 29.73 in 1.0 mi NNW 11.5 mph - 0.01 in Snow Light Snow
12:26 PM 26.6 °F 17.5 °F 21.2 °F 80% 29.72 in 1.0 mi North 9.2 mph - 0.02 in Snow Light Snow
12:50 PM 26.6 °F 16.8 °F 21.2 °F 80% 29.72 in 1.2 mi NNW 10.4 mph - 0.04 in Snow Light Snow
12:53 PM 26.1 °F 15.6 °F 21.0 °F 81% 29.73 in 1.2 mi NNW 11.5 mph - 0.04 in Snow Light Snow
1:07 PM 26.6 °F 15.7 °F 21.2 °F 80% 29.70 in 1.2 mi NNW 12.7 mph - 0.01 in Snow Light Snow
1:53 PM 26.1 °F 15.6 °F 19.9 °F 78% 29.72 in 1.5 mi NNW 11.5 mph - 0.02 in Snow Light Snow
2:24 PM 26.6 °F 15.2 °F 19.4 °F 74% 29.70 in 1.2 mi NNW 13.8 mph - 0.02 in Snow Light Snow
2:45 PM 26.6 °F 16.2 °F 19.4 °F 74% 29.71 in 1.2 mi NNW 11.5 mph - 0.03 in Snow Light Snow
2:53 PM 26.1 °F 15.6 °F 19.0 °F 75% 29.75 in 1.5 mi NW 11.5 mph - 0.03 in Snow Light Snow
3:14 PM 26.6 °F 16.2 °F 19.4 °F 74% 29.73 in 1.5 mi NW 11.5 mph - 0.01 in Snow Light Snow
3:30 PM 26.6 °F 16.8 °F 19.4 °F 74% 29.73 in 1.5 mi NNW 10.4 mph - 0.02 in Snow Light Snow
3:53 PM 26.1 °F 16.2 °F 19.9 °F 78% 29.77 in 1.2 mi NW 10.4 mph - 0.03 in Snow Light Snow
4:12 PM 26.6 °F 16.2 °F 19.4 °F 74% 29.74 in 1.2 mi NNW 11.5 mph - 0.01 in Snow Light Snow
4:53 PM 25.0 °F 14.8 °F 19.9 °F 81% 29.78 in 1.2 mi North 10.4 mph - 0.02 in Snow Light Snow
5:53 PM 25.0 °F 17.1 °F 19.9 °F 81% 29.78 in 1.5 mi North 6.9 mph - 0.02 in Snow Light Snow
6:03 PM 24.8 °F 17.9 °F 19.4 °F 80% 29.73 in 2.5 mi North 5.8 mph - 0.01 in Snow Light Snow
6:38 PM 24.8 °F 19.1 °F 19.4 °F 80% 29.73 in 3.0 mi NNW 4.6 mph - 0.01 in Snow Light Snow
6:53 PM 25.0 °F 18.1 °F 19.0 °F 78% 29.79 in 3.0 mi NW 5.8 mph - 0.01 in Snow Light Snow
7:53 PM 25.0 °F - 19.0 °F 78% 29.79 in 3.0 mi Calm Calm - 0.00 in Snow Light Snow
8:53 PM 24.1 °F 19.7 °F 18.0 °F 77% 29.78 in 10.0 mi West 3.5 mph - 0.00 in   Overcast
9:53 PM 24.1 °F 17.0 °F 17.1 °F 75% 29.78 in 10.0 mi WSW 5.8 mph - N/A   Overcast
10:53 PM 24.1 °F 13.7 °F 12.9 °F 62% 29.78 in 10.0 mi NNW 10.4 mph - N/A   Mostly Cloudy
11:53 PM 21.9 °F 9.2 °F 12.0 °F 66% 29.79 in 10.0 mi NNW 13.8 mph - N/A   Overcast